This is the latest recevied weather packets stored in our database for station/object DJ5CM-10. If no packets are shown the sender has not sent any weather packets the latest 1 day(s).
| Time | Temp. | Humidity | Pressure | Rain* | Wind** | Luminosity | Snow |
|---|---|---|---|---|---|---|---|
| 1777776782 | 11.67° C | 69% | 1011 hPa | - | - | - | - |
| 1777775923 | 11.67° C | 69% | 1011.1 hPa | - | - | - | - |
| 1777775882 | 11.67° C | 69% | 1011.1 hPa | - | - | - | - |
| 1777774982 | 11.67° C | 68% | 1011.2 hPa | - | - | - | - |
| 1777774082 | 12.22° C | 68% | 1011.3 hPa | - | - | - | - |
| 1777773182 | 12.22° C | 67% | 1011.6 hPa | - | - | - | - |
| 1777772282 | 12.22° C | 67% | 1011.7 hPa | - | - | - | - |
| 1777771382 | 12.22° C | 67% | 1012.2 hPa | - | - | - | - |
| 1777770482 | 12.22° C | 66% | 1012.4 hPa | - | - | - | - |
| 1777769581 | 12.78° C | 65% | 1012.3 hPa | - | - | - | - |
| 1777768681 | 12.78° C | 65% | 1012.3 hPa | - | - | - | - |
| 1777767781 | 13.33° C | 64% | 1012.2 hPa | - | - | - | - |
| 1777766881 | 13.33° C | 63% | 1012.4 hPa | - | - | - | - |
| 1777765981 | 13.33° C | 62% | 1012.5 hPa | - | - | - | - |
| 1777765081 | 13.89° C | 62% | 1012.4 hPa | - | - | - | - |
| 1777764181 | 13.89° C | 61% | 1012.3 hPa | - | - | - | - |
| 1777763281 | 14.44° C | 61% | 1012.5 hPa | - | - | - | - |
| 1777762381 | 14.44° C | 60% | 1012.4 hPa | - | - | - | - |
| 1777761480 | 14.44° C | 59% | 1012.5 hPa | - | - | - | - |
| 1777760580 | 15° C | 58% | 1012.5 hPa | - | - | - | - |
| 1777759680 | 15° C | 57% | 1012.6 hPa | - | - | - | - |
| 1777758780 | 15.56° C | 56% | 1012.5 hPa | - | - | - | - |
| 1777757880 | 16.11° C | 55% | 1012.6 hPa | - | - | - | - |
| 1777756980 | 16.11° C | 54% | 1012.8 hPa | - | - | - | - |
| 1777756080 | 16.67° C | 53% | 1012.9 hPa | - | - | - | - |
* Rain since midnight (hover to see other rain measurements)
** Current wind speed in m/s (hover to see current wind gust speed)